• en Belgique
  • Liste des pays
  • À 7 jours
  • Température de l'eau
  • Carte satellitaire
  • Carte météo
  • Widgets météo
  • user-avatar
    Se connecter

    Météo par heure à Constantine

    Ce jour, 16 Juillet, Lundi

    Heure Température Précipitation Vent Pression Humidité
    00:00 +34°C° 0 mm 2 m/s 711 mmHg 24%
    01:00 +32°C° 0 mm 2 m/s 710 mmHg 26%
    02:00 +33°C° 0 mm 3 m/s 710 mmHg 29%
    03:00 +33°C° 0 mm 3 m/s 710 mmHg 31%
    04:00 +31°C° 0 mm 3 m/s 710 mmHg 35%
    05:00 +31°C° 0 mm 2 m/s 711 mmHg 39%
    06:00 +30°C° 0 mm 2 m/s 711 mmHg 44%
    07:00 +31°C° 0 mm 2 m/s 711 mmHg 39%
    08:00 +33°C° 0 mm 3 m/s 712 mmHg 34%
    09:00 +34°C° 0 mm 3 m/s 712 mmHg 29%
    10:00 +35°C° 0 mm 3 m/s 712 mmHg 27%
    11:00 +36°C° 0 mm 3 m/s 712 mmHg 24%
    12:00 +37°C° 0 mm 3 m/s 712 mmHg 22%
    13:00 +37°C° 0 mm 4 m/s 712 mmHg 23%
    14:00 +37°C° 0 mm 5 m/s 712 mmHg 24%
    15:00 +38°C° 0 mm 6 m/s 712 mmHg 25%
    16:00 +35°C° 0 mm 6 m/s 711 mmHg 30%
    17:00 +33°C° 0 mm 5 m/s 711 mmHg 36%
    18:00 +30°C° 0 mm 4 m/s 711 mmHg 41%
    19:00 +28°C° 0 mm 4 m/s 712 mmHg 44%
    20:00 +27°C° 0 mm 3 m/s 712 mmHg 46%
    21:00 +26°C° 0 mm 2 m/s 712 mmHg 49%
    22:00 +26°C° 0 mm 2 m/s 712 mmHg 48%
    23:00 +25°C° 0 mm 1 m/s 712 mmHg 48%

    Demain, 17 Juillet, Mardi

    Heure Température Précipitation Vent Pression Humidité
    00:00 +25°C° 0 mm 1 m/s 712 mmHg 48%
    01:00 +25°C° 0 mm 1 m/s 712 mmHg 47%
    02:00 +24°C° 0 mm 1 m/s 711 mmHg 47%
    03:00 +24°C° 0 mm 1 m/s 711 mmHg 47%
    04:00 +24°C° 0 mm 1 m/s 711 mmHg 44%
    05:00 +24°C° 0 mm 1 m/s 711 mmHg 42%
    06:00 +25°C° 0 mm 1 m/s 712 mmHg 39%
    07:00 +26°C° 0 mm 1 m/s 712 mmHg 35%
    08:00 +28°C° 0 mm 1 m/s 712 mmHg 30%
    09:00 +30°C° 0 mm 1 m/s 713 mmHg 25%
    10:00 +31°C° 0 mm 2 m/s 713 mmHg 23%
    11:00 +34°C° 0 mm 2 m/s 713 mmHg 21%
    12:00 +35°C° 0 mm 3 m/s 713 mmHg 19%
    13:00 +36°C° 0 mm 3 m/s 713 mmHg 20%
    14:00 +36°C° 0 mm 3 m/s 712 mmHg 20%
    15:00 +36°C° 0 mm 4 m/s 712 mmHg 21%
    16:00 +35°C° 0 mm 4 m/s 712 mmHg 25%
    17:00 +34°C° 0 mm 4 m/s 712 mmHg 30%
    18:00 +33°C° 0 mm 4 m/s 711 mmHg 34%
    19:00 +30°C° 0 mm 3 m/s 711 mmHg 39%
    20:00 +29°C° 0 mm 2 m/s 712 mmHg 44%
    21:00 +27°C° 0 mm 2 m/s 712 mmHg 49%
    22:00 +27°C° 0 mm 2 m/s 711 mmHg 49%
    23:00 +27°C° 0 mm 1 m/s 711 mmHg 50%

    Après-demain, 18 Juillet, Mercredi

    Heure Température Précipitation Vent Pression Humidité
    00:00 +27°C° 0 mm 1 m/s 711 mmHg 50%
    01:00 +26°C° 0 mm 1 m/s 710 mmHg 50%
    02:00 +26°C° 0 mm 1 m/s 710 mmHg 50%
    03:00 +26°C° 0 mm 1 m/s 710 mmHg 50%
    04:00 +27°C° 0 mm 1 m/s 710 mmHg 47%
    05:00 +27°C° 0 mm 1 m/s 710 mmHg 45%
    06:00 +28°C° 0 mm 1 m/s 710 mmHg 42%
    07:00 +30°C° 0 mm 1 m/s 711 mmHg 37%
    08:00 +33°C° 0 mm 1 m/s 711 mmHg 32%
    09:00 +35°C° 0 mm 1 m/s 711 mmHg 26%
    10:00 +38°C° 0 mm 2 m/s 711 mmHg 23%
    11:00 +40°C° 0 mm 3 m/s 711 mmHg 19%
    12:00 +43°C° 0 mm 3 m/s 711 mmHg 16%
    13:00 +43°C° 0 mm 4 m/s 711 mmHg 15%
    14:00 +43°C° 0 mm 5 m/s 711 mmHg 15%
    15:00 +43°C° 0 mm 5 m/s 710 mmHg 15%
    16:00 +42°C° 0 mm 5 m/s 710 mmHg 18%
    17:00 +41°C° 0 mm 4 m/s 710 mmHg 21%
    18:00 +38°C° 0 mm 3 m/s 710 mmHg 25%
    19:00 +36°C° 0 mm 2 m/s 710 mmHg 29%
    20:00 +35°C° 0 mm 2 m/s 710 mmHg 33%
    21:00 +32°C° 0 mm 1 m/s 710 mmHg 37%
    22:00 +32°C° 0 mm 1 m/s 710 mmHg 37%
    23:00 +31°C° 0 mm 1 m/s 710 mmHg 38%

    19 Juillet, Jeudi

    Heure Température Précipitation Vent Pression Humidité
    00:00 +29°C° 0 mm 0 m/s 709 mmHg 39%
    01:00 +28°C° 0 mm 0 m/s 709 mmHg 40%
    02:00 +28°C° 0 mm 0 m/s 709 mmHg 41%
    03:00 +29°C° 0 mm 1 m/s 709 mmHg 42%
    04:00 +30°C° 0 mm 1 m/s 709 mmHg 41%
    05:00 +30°C° 0 mm 1 m/s 709 mmHg 40%
    06:00 +31°C° 0 mm 1 m/s 710 mmHg 39%
    07:00 +33°C° 0 mm 1 m/s 710 mmHg 36%
    08:00 +34°C° 0 mm 1 m/s 710 mmHg 32%
    09:00 +37°C° 0 mm 2 m/s 711 mmHg 28%
    10:00 +38°C° 0 mm 2 m/s 711 mmHg 25%
    11:00 +39°C° 0 mm 2 m/s 711 mmHg 23%
    12:00 +40°C° 0 mm 3 m/s 711 mmHg 21%
    13:00 +40°C° 0 mm 3 m/s 711 mmHg 21%
    14:00 +40°C° 0 mm 3 m/s 711 mmHg 22%
    15:00 +40°C° 0 mm 3 m/s 710 mmHg 23%
    16:00 +39°C° 0 mm 3 m/s 710 mmHg 26%
    17:00 +37°C° 0 mm 4 m/s 710 mmHg 29%
    18:00 +36°C° 0 mm 4 m/s 710 mmHg 33%
    19:00 +35°C° 0 mm 3 m/s 710 mmHg 37%
    20:00 +32°C° 0 mm 2 m/s 710 mmHg 41%
    21:00 +31°C° 0 mm 1 m/s 710 mmHg 44%
    22:00 +31°C° 0 mm 1 m/s 710 mmHg 43%
    23:00 +31°C° 0 mm 1 m/s 710 mmHg 42%

    20 Juillet, Vendredi

    Heure Température Précipitation Vent Pression Humidité
    00:00 +31°C° 0 mm 1 m/s 710 mmHg 40%
    01:00 +31°C° 0 mm 1 m/s 709 mmHg 39%
    02:00 +31°C° 0 mm 1 m/s 709 mmHg 38%
    03:00 +31°C° 0 mm 1 m/s 709 mmHg 36%
    04:00 +31°C° 0 mm 1 m/s 709 mmHg 37%
    05:00 +30°C° 0 mm 1 m/s 709 mmHg 38%
    06:00 +30°C° 0 mm 1 m/s 709 mmHg 39%
    07:00 +32°C° 0 mm 1 m/s 710 mmHg 35%
    08:00 +34°C° 0 mm 1 m/s 710 mmHg 30%
    09:00 +36°C° 0 mm 1 m/s 711 mmHg 25%
    10:00 +38°C° 0 mm 2 m/s 711 mmHg 22%
    11:00 +39°C° 0 mm 2 m/s 711 mmHg 20%
    12:00 +41°C° 0 mm 2 m/s 711 mmHg 18%
    13:00 +40°C° 0 mm 3 m/s 711 mmHg 19%
    14:00 +40°C° 0 mm 3 m/s 710 mmHg 20%
    15:00 +41°C° 0 mm 4 m/s 710 mmHg 21%
    16:00 +38°C° 0 mm 4 m/s 710 mmHg 24%
    17:00 +36°C° 0 mm 4 m/s 710 mmHg 28%
    18:00 +34°C° 0 mm 4 m/s 710 mmHg 31%
    19:00 +33°C° 0 mm 3 m/s 711 mmHg 33%
    20:00 +31°C° 0 mm 3 m/s 711 mmHg 35%
    21:00 +30°C° 0 mm 2 m/s 712 mmHg 37%
    22:00 +29°C° 0,1 mm 2 m/s 712 mmHg 38%
    23:00 +29°C° 0,1 mm 2 m/s 711 mmHg 39%

    21 Juillet, Samedi

    Heure Température Précipitation Vent Pression Humidité
    00:00 +28°C° 0,1 mm 2 m/s 711 mmHg 40%
    01:00 +27°C° 0 mm 2 m/s 711 mmHg 41%
    02:00 +27°C° 0 mm 1 m/s 711 mmHg 42%
    03:00 +26°C° 0 mm 1 m/s 711 mmHg 44%
    04:00 +26°C° 0 mm 1 m/s 711 mmHg 43%
    05:00 +26°C° 0 mm 1 m/s 712 mmHg 43%
    06:00 +26°C° 0 mm 1 m/s 712 mmHg 42%
    07:00 +27°C° 0 mm 1 m/s 712 mmHg 38%
    08:00 +29°C° 0 mm 1 m/s 712 mmHg 35%
    09:00 +30°C° 0 mm 2 m/s 712 mmHg 31%
    10:00 +31°C° 0 mm 2 m/s 712 mmHg 30%
    11:00 +33°C° 0 mm 3 m/s 712 mmHg 28%
    12:00 +34°C° 0 mm 4 m/s 713 mmHg 27%
    13:00 +35°C° 0 mm 4 m/s 712 mmHg 29%
    14:00 +35°C° 0 mm 4 m/s 712 mmHg 30%
    15:00 +35°C° 0 mm 4 m/s 712 mmHg 31%
    16:00 +34°C° 0 mm 4 m/s 712 mmHg 36%
    17:00 +33°C° 0 mm 4 m/s 712 mmHg 41%
    18:00 +30°C° 0 mm 3 m/s 712 mmHg 46%
    19:00 +29°C° 0 mm 3 m/s 712 mmHg 51%
    20:00 +28°C° 0 mm 2 m/s 712 mmHg 56%
    21:00 +27°C° 0 mm 1 m/s 712 mmHg 61%
    22:00 +26°C° 0 mm 1 m/s 712 mmHg 62%
    23:00 +26°C° 0 mm 1 m/s 712 mmHg 64%
    Voir plus